[[{"header":{"parameterUnit":"m.s-1","parameterCategory":1,"la1":30.2991,"la2":30.254,"lo1":-89.0895,"lo2":-89.0444,"dy":0.0017,"dx":0.0017,"nx":28,"ny":28,"refTime":"2025-04-16T21:00:00:Z","depth":0,"parameterNumber":2,"parameterNumberName":"U-component_of_WINDS"},"data":[0,0,0,0,0,0,0,0,0,0,0,0,0,0,0,0,0,0,0,0,0,0,0,0,0,0,0,0,0,0,0,0,0,0,0,0,0,0,0,0,0,0,0,0,0,0,0,0,0,0,0,0,0,0,0,0,0,0,-3.1009,-3.1008,0,-3.0925,-3.0924,-3.0923,-3.0751,-3.0748,-3.0745,-3.0741,-3.0659,-3.066,-3.0661,0,0,0,0,0,0,0,0,0,0,0,0,0,-3.1029,-3.1029,-3.1009,-3.1008,-3.1007,-3.0925,-3.0924,-3.0923,-3.0752,-3.0748,-3.0744,-3.074,-3.0659,-3.066,-3.0661,0,0,0,0,0,0,0,0,0,0,0,0,0,-3.099,-3.1029,-3.101,-3.0912,-3.0902,-3.0925,-3.0924,-3.0922,-3.0753,-3.0748,-3.0743,-3.0738,-3.0658,-3.066,-3.0661,-3.0773,0,0,-3.0666,-3.0666,0,0,0,0,0,0,0,0,-3.0993,-3.099,-3.0927,-3.0919,-3.0908,-3.0843,-3.09,-3.0872,-3.0754,-3.081,-3.0741,-3.0735,-3.0725,-3.072,-3.0716,-3.0769,-3.0766,-3.0666,-3.0667,-3.0667,-3.0668,0,0,0,0,0,0,0,-3.0995,-3.0992,-3.0976,-3.0927,-3.0915,-3.0874,-3.0863,-3.0894,-3.0797,-3.0805,-3.0792,-3.0784,-3.0718,-3.0715,-3.0713,-3.0765,-3.0666,-3.0667,-3.0668,-3.0669,-3.0908,-3.0913,0,0,0,0,0,0,-3.1012,-3.0996,-3.0979,-3.0973,-3.0938,-3.0878,-3.0866,-3.0869,-3.0796,-3.078,-3.0788,-3.0776,-3.0715,-3.0711,-3.0709,-3.0837,-3.0667,-3.0669,-3.067,-3.0903,-3.0909,-3.0915,0,0,0,0,0,0,-3.1013,-3.1012,-3.0982,-3.0981,-3.0974,-3.0883,-3.0889,-3.087,-3.0866,-3.0784,-3.0767,-3.0802,-3.0711,-3.0707,-3.0759,-3.0831,-3.067,-3.0671,-3.0896,-3.0905,-3.0912,-3.1093,0,0,0,0,0,0,-3.1014,-3.1013,-3.1053,-3.0983,-3.0975,-3.1032,-3.0893,-3.0872,-3.0869,-3.0852,-3.0792,-3.0778,-3.0706,-3.0758,-3.076,-3.0831,-3.0672,-3.0889,-3.09,-3.091,-3.108,-3.1106,-3.1128,0,0,0,0,0,-3.1015,-3.1108,-3.1056,-3.1055,-3.1023,-3.1036,-3.1032,-3.0947,-3.0876,-3.0916,-3.0864,-3.078,-3.0823,-3.0764,-3.0766,-3.0838,-3.0884,-3.0897,-3.0909,-3.1069,-3.1101,-3.1128,0,0,0,0,0,0,-3.119,-3.1097,-3.1038,-3.1111,-3.1083,-3.1007,-3.1056,-3.0983,-3.0975,-3.096,-3.0856,-3.0844,-3.0911,-3.0879,-3.0815,-3.0944,-3.084,-3.0854,-3.0962,-3.0991,-3.1015,-3.1022,-3.0673,0,0,0,0,0,-3.1237,-3.1254,-3.1172,-3.1244,-3.1233,-3.1148,-3.115,-3.1087,-3.1054,-3.1042,-3.0993,-3.0966,-3.0973,-3.098,-3.0982,-3.1074,-3.106,-3.1125,-3.1149,-3.117,-3.1183,-3.1231,-3.126,-3.0955,-3.0955,-3.0955,0,0,-3.1334,-3.1285,-3.1302,-3.1278,-3.1248,-3.1271,-3.1138,-3.1167,-3.1182,-3.1046,-3.1092,-3.1056,-3.1019,-3.1092,-3.1121,-3.1068,-3.1264,-3.1185,-3.1202,-3.1204,-3.1247,-3.1276,-3.1301,-3.0964,-3.0962,-3.0961,0,0,-3.1522,-3.1486,-3.1542,-3.1516,-3.1473,-3.1416,-3.1431,-3.1366,-3.1337,-3.1381,-3.128,-3.1298,-3.1313,-3.1291,-3.1282,-3.1465,-3.1388,-3.1469,-3.1596,-3.1645,-3.1669,-3.1689,-3.1756,-3.1782,-3.1482,-3.1483,-3.1483,0,-3.1648,-3.1675,-3.1581,-3.1616,-3.161,-3.1487,-3.1545,-3.1524,-3.1486,-3.1485,-3.1425,-3.1442,-3.1408,-3.1476,-3.1521,-3.1517,-3.1531,-3.1475,-3.1673,-3.1692,-3.171,-3.1773,-3.1799,-3.1493,-3.1491,-3.149,-3.1489,0,-3.1834,-3.1854,-3.1906,-3.187,-3.1869,-3.1916,-3.1831,-3.1842,-3.178,-3.1731,-3.1779,-3.1734,-3.1726,-3.1737,-3.1677,-3.1797,-3.1765,-3.1691,-3.1585,-3.1751,-3.1809,-3.1832,-3.1507,-3.1504,-3.1501,-3.1498,0,0,-3.2128,-3.2041,-3.2062,-3.2045,-3.199,-3.2005,-3.2048,-3.2039,-3.2051,-3.2029,-3.2064,-3.208,-3.2011,-3.2001,-3.1938,-3.1981,-3.2131,-3.1901,-3.1898,-3.1946,-3.2263,-3.232,-3.2349,-3.208,-3.2084,-3.2087,-3.2267,0,-3.2304,-3.2369,-3.2288,-3.2372,-3.2391,-3.2276,-3.2313,-3.2285,-3.2241,-3.2252,-3.2203,-3.2217,-3.2124,-3.2118,-3.2155,-3.2105,-3.2193,-3.2091,-3.2113,-3.2115,-3.2126,-3.2379,-3.2439,-3.261,-3.2288,-3.2292,-3.2294,0,-3.2518,-3.2506,-3.2592,-3.2533,-3.2539,-3.2573,-3.256,-3.2572,-3.2538,-3.2503,-3.2494,-3.2418,-3.2458,-3.2355,-3.241,-3.2342,-3.2347,-3.2324,-3.2329,-3.2328,-3.2215,-3.2386,-3.2662,-3.2689,-3.2329,-3.2326,-3.2323,0,-3.2726,-3.2731,-3.2784,-3.2773,-3.2706,-3.2733,-3.2707,-3.2668,-3.2669,-3.2658,-3.2658,-3.2653,-3.265,-3.2649,-3.2575,-3.2507,-3.264,-3.2531,-3.2614,-3.2616,-3.2647,-3.2646,-3.2929,-3.2649,-3.2649,-3.2648,-3.2648,0,-3.2931,-3.2989,-3.2876,-3.2909,-3.2971,-3.2878,-3.2942,-3.2904,-3.2872,-3.2897,-3.2797,-3.2823,-3.2723,-3.2739,-3.2682,-3.2737,-3.2737,-3.2711,-3.2695,-3.272,-3.2724,-3.2722,-3.2709,-3.2655,-3.2653,-3.2652,-3.2651,0,-3.3174,-3.31,-3.315,-3.3083,-3.3068,-3.3117,-3.306,-3.3088,-3.3038,-3.3071,-3.3073,-3.2995,-3.3009,-3.2935,-3.2935,-3.2897,-3.2982,-3.2945,-3.2993,-3.2982,-3.307,-3.3063,-3.3362,-3.3397,-3.3095,-3.3097,-3.31,0,-3.331,-3.3352,-3.3289,-3.3298,-3.3277,-3.3292,-3.3293,-3.3203,-3.3208,-3.3175,-3.3209,-3.3214,-3.3214,-3.3242,-3.3187,-3.3188,-3.3151,-3.3256,-3.3151,-3.3175,-3.3154,-3.3153,-3.3158,-3.3278,-3.3282,-3.3285,-3.3287,0,-3.3561,-3.3523,-3.3526,-3.3518,-3.3521,-3.3511,-3.3494,-3.3508,-3.3411,-3.3423,-3.3435,-3.3435,-3.3436,-3.3444,-3.3434,-3.3409,-3.3334,-3.3321,-3.334,-3.3367,-3.3394,-3.3382,-3.3054,-3.3315,-3.3312,-3.331,-3.3308,-3.3307,-3.3754,-3.3787,-3.3748,-3.3756,-3.3734,-3.3722,-3.3746,-3.3699,-3.3707,-3.37,-3.3648,-3.3671,-3.3639,-3.3618,-3.3601,-3.3619,-3.3569,-3.3597,-3.3605,-3.3613,-3.3629,-3.339,-3.3617,-3.3616,-3.3615,-3.3614,-3.3614,0,-3.4001,-3.397,-3.3979,-3.3958,-3.3966,-3.3893,-3.3871,-3.3883,-3.3904,-3.388,-3.3882,-3.3899,-3.3907,-3.3852,-3.3853,-3.3879,-3.3845,-3.3883,-3.388,-3.3876,-3.3673,-3.3656,-3.391,-3.391,-3.391,-3.391,-3.391,-3.391,-3.4129,-3.4181,-3.414,-3.4181,-3.415,-3.4171,-3.4166,-3.4154,-3.4135,-3.4157,-3.4163,-3.4127,-3.4092,-3.409,-3.4095,-3.4079,-3.4085,-3.4135,-3.4108,-3.3919,-3.389,-3.3863,-3.3847,-3.4137,-3.4137,-3.4309,-3.4311,-3.4312]},{"header":{"parameterUnit":"m.s-1","parameterCategory":1,"la1":30.2991,"la2":30.254,"lo1":-89.0895,"lo2":-89.0444,"dy":0.0017,"dx":0.0017,"nx":28,"ny":28,"refTime":"2025-04-16T21:00:00:Z","depth":0,"parameterNumber":3,"parameterNumberName":"V-component_of_WINDS"},"data":[0,0,0,0,0,0,0,0,0,0,0,0,0,0,0,0,0,0,0,0,0,0,0,0,0,0,0,0,0,0,0,0,0,0,0,0,0,0,0,0,0,0,0,0,0,0,0,0,0,0,0,0,0,0,0,0,0,0,1.6432,1.6432,0,1.6426,1.6426,1.6425,1.6451,1.6452,1.6452,1.6453,1.6442,1.6442,1.6441,0,0,0,0,0,0,0,0,0,0,0,0,0,1.6463,1.6462,1.6432,1.6432,1.6432,1.6426,1.6426,1.6425,1.6451,1.6452,1.6453,1.6453,1.6443,1.6442,1.644,0,0,0,0,0,0,0,0,0,0,0,0,0,1.6452,1.6462,1.6432,1.6444,1.6445,1.6426,1.6425,1.6425,1.6451,1.6452,1.6453,1.6454,1.6443,1.6442,1.644,1.6408,0,0,1.6436,1.6435,0,0,0,0,0,0,0,0,1.6453,1.6451,1.6442,1.6443,1.6444,1.644,1.6433,1.6419,1.645,1.6448,1.6453,1.6454,1.6441,1.6439,1.6436,1.6408,1.6407,1.6436,1.6435,1.6434,1.6434,0,0,0,0,0,0,0,1.6454,1.6451,1.6429,1.6442,1.6443,1.6448,1.6448,1.643,1.6438,1.6448,1.645,1.6449,1.6441,1.6437,1.6435,1.6407,1.6436,1.6434,1.6433,1.6433,1.6353,1.6352,0,0,0,0,0,0,1.6453,1.6452,1.6429,1.6429,1.6451,1.6447,1.6447,1.644,1.6438,1.6439,1.6448,1.6451,1.6439,1.6437,1.6435,1.6397,1.6434,1.6433,1.6432,1.6354,1.6353,1.6351,0,0,0,0,0,0,1.6454,1.6451,1.643,1.6441,1.6439,1.6445,1.6438,1.6439,1.6435,1.6438,1.6439,1.6443,1.644,1.6437,1.6415,1.6397,1.6432,1.6431,1.6356,1.6354,1.6352,1.6321,0,0,0,0,0,0,1.6455,1.6451,1.6439,1.6441,1.6438,1.641,1.6437,1.6439,1.6433,1.6436,1.6433,1.6434,1.644,1.6417,1.6414,1.6396,1.6429,1.6357,1.6355,1.6353,1.6324,1.6318,1.6314,0,0,0,0,0,1.6456,1.643,1.6439,1.6436,1.6424,1.6409,1.6408,1.6417,1.6432,1.6419,1.6422,1.6434,1.64,1.6415,1.6411,1.6392,1.6358,1.6356,1.6353,1.6326,1.6319,1.6314,0,0,0,0,0,0,1.6424,1.643,1.644,1.6414,1.6411,1.6414,1.6398,1.641,1.6402,1.6404,1.6415,1.6414,1.639,1.6389,1.6405,1.6361,1.6382,1.6378,1.6362,1.6356,1.6352,1.6351,1.6428,0,0,0,0,0,1.6415,1.6404,1.6409,1.6386,1.6384,1.6392,1.6385,1.6393,1.639,1.6389,1.6389,1.6385,1.6373,1.6365,1.6355,1.6325,1.6324,1.631,1.6305,1.6301,1.6297,1.6281,1.6275,1.6342,1.6342,1.6342,0,0,1.6394,1.6396,1.6388,1.6379,1.6378,1.6365,1.639,1.6375,1.6366,1.6386,1.6365,1.6366,1.6361,1.6335,1.6324,1.6334,1.6279,1.6298,1.6294,1.6292,1.6277,1.6271,1.6265,1.6341,1.6341,1.6341,0,0,1.6349,1.635,1.6331,1.633,1.6328,1.6334,1.633,1.6331,1.6332,1.6312,1.6327,1.6316,1.6296,1.6292,1.6288,1.6244,1.6255,1.6241,1.6214,1.6198,1.6193,1.6188,1.6172,1.6166,1.6237,1.6237,1.6237,0,1.6323,1.6306,1.6319,1.6304,1.6299,1.632,1.63,1.6297,1.6292,1.6288,1.63,1.6276,1.6275,1.6248,1.6238,1.6234,1.6228,1.624,1.6193,1.6188,1.6184,1.6168,1.6162,1.6235,1.6235,1.6236,1.6236,0,1.6273,1.6261,1.6245,1.6241,1.6236,1.6218,1.6228,1.622,1.6229,1.6233,1.6213,1.6212,1.6202,1.6197,1.6205,1.6171,1.6178,1.6191,1.6211,1.6175,1.6161,1.6155,1.6233,1.6233,1.6234,1.6234,0,0,1.6206,1.6212,1.6205,1.6204,1.6205,1.6195,1.6179,1.6171,1.6163,1.616,1.6145,1.6129,1.6142,1.6137,1.6145,1.6132,1.6096,1.6147,1.6147,1.6136,1.6059,1.6047,1.604,1.6105,1.6104,1.6103,1.6058,0,1.6161,1.6134,1.6147,1.6117,1.6106,1.6126,1.6112,1.611,1.6114,1.6105,1.6109,1.6097,1.6116,1.6113,1.61,1.6103,1.6081,1.6107,1.609,1.6089,1.6088,1.6032,1.602,1.5978,1.6053,1.6052,1.6051,0,1.6105,1.61,1.607,1.6075,1.607,1.6057,1.6051,1.6042,1.6041,1.6045,1.6041,1.6052,1.6035,1.6058,1.6034,1.6052,1.6046,1.6047,1.6045,1.6042,1.6066,1.6026,1.5964,1.5957,1.6043,1.6043,1.6044,0,1.6057,1.6044,1.6024,1.6023,1.6027,1.6017,1.6019,1.6019,1.6014,1.6008,1.6005,1.5997,1.5993,1.5986,1.5995,1.6011,1.597,1.5993,1.5972,1.5971,1.596,1.596,1.5895,1.596,1.596,1.596,1.596,0,1.6004,1.5985,1.6003,1.599,1.5969,1.5985,1.5963,1.5966,1.5967,1.5955,1.5973,1.5961,1.5975,1.5964,1.5971,1.595,1.5948,1.595,1.5952,1.5947,1.5947,1.5942,1.5944,1.5958,1.5959,1.5959,1.5959,0,1.5946,1.5958,1.5938,1.5945,1.5946,1.593,1.5935,1.5924,1.593,1.5915,1.5912,1.5922,1.5911,1.592,1.5909,1.5914,1.5886,1.5892,1.5886,1.5887,1.5864,1.5866,1.5792,1.5782,1.5855,1.5854,1.5854,0,1.5911,1.5896,1.5903,1.5897,1.5897,1.5887,1.5883,1.5898,1.5892,1.5891,1.5879,1.587,1.5863,1.5844,1.5849,1.584,1.5846,1.5821,1.5844,1.5841,1.5844,1.5844,1.5842,1.5815,1.5814,1.5813,1.5813,0,1.5846,1.5853,1.5846,1.5842,1.5836,1.5833,1.5831,1.5825,1.584,1.5833,1.5822,1.5817,1.5807,1.5797,1.579,1.5791,1.5804,1.5806,1.58,1.5794,1.5791,1.5791,1.5871,1.5807,1.5807,1.5808,1.5808,1.5808,1.5797,1.5785,1.5788,1.578,1.5781,1.5779,1.5769,1.5775,1.5767,1.5761,1.577,1.5757,1.5757,1.5751,1.575,1.5739,1.5749,1.5741,1.5739,1.5736,1.5732,1.5795,1.5738,1.5738,1.5739,1.5739,1.5739,0,1.5732,1.5736,1.5728,1.5726,1.5719,1.5736,1.5734,1.5728,1.5716,1.5716,1.571,1.5698,1.5689,1.5695,1.5687,1.5677,1.5683,1.5675,1.5674,1.5674,1.5724,1.5729,1.567,1.567,1.567,1.567,1.567,1.567,1.5697,1.5678,1.5686,1.5668,1.5671,1.566,1.5658,1.5656,1.5656,1.5643,1.5636,1.5641,1.5643,1.5636,1.5628,1.563,1.5625,1.5614,1.5618,1.5664,1.567,1.5677,1.5682,1.5614,1.5614,1.5569,1.5568,1.5568]}]]